FW2439 Weather Reports


time (UTC)temp
F
wind
direction
speed
knots
gust
knots
rain 1hr
in
rain 24hr
in
rain mn
in
humidity
%
barometer
mb
20260905203104 99 285 0.0 4.3 0.00 0.00 0.00 54 1011.6
20260905201545 99 43 1.7 4.3 0.00 0.00 0.00 52 1011.7
20260905200043 98 24 0.9 4.3 0.00 0.00 0.00 56 1011.9
20260905194539 98 212 1.7 3.5 0.00 0.00 0.00 54 1012.2
20260905193038 99 323 0.9 5.2 0.00 0.00 0.00 52 1012.5
20260905191540 98 333 0.0 2.6 0.00 0.00 0.00 51 1012.5
20260905190033 97 300 0.0 5.2 0.00 0.00 0.00 56 1012.9
20260905184531 98 22 0.0 3.5 0.00 0.00 0.00 52 1013.0
20260905183029 98 47 0.9 4.3 0.00 0.00 0.00 53 1013.2
20260905181527 97 319 0.9 4.3 0.00 0.00 0.00 56 1013.2
20260905180025 96 305 0.9 3.5 0.00 0.00 0.00 55 1013.3
20260905174524 96 312 0.9 3.5 0.00 0.00 0.00 57 1013.2
20260905173022 96 328 1.7 4.3 0.00 0.00 0.00 57 1013.5
20260905171528 96 227 0.9 1.7 0.00 0.00 0.00 58 1013.6
20260905170022 95 218 0.9 2.6 0.00 0.00 0.00 60 1013.9
20260905164518 95 251 0.0 3.5 0.00 0.00 0.00 61 1014.1
20260905163021 95 230 0.0 1.7 0.00 0.00 0.00 61 1014.2
20260905161517 95 356 0.0 4.3 0.00 0.00 0.00 60 1014.3
20260905160015 95 219 0.0 3.5 0.00 0.00 0.00 61 1014.5
20260905154513 95 284 0.0 1.7 0.00 0.00 0.00 62 1014.3
20260905153014 95 241 0.0 1.7 0.00 0.00 0.00 63 1014.5
20260905151508 93 250 0.0 0.0 0.00 0.00 0.00 66 1014.4
20260905150005 92 287 0.0 1.7 0.00 0.00 0.00 70 1014.5
20260905144606 92 252 0.0 0.9 0.00 0.00 0.00 71 1014.4
20260905143103 90 252 0.0 0.9 0.00 0.00 0.00 76 1014.4
20260905141551 85 252 0.0 0.0 0.00 0.00 0.00 86 1014.5
20260905140047 82 252 0.0 0.0 0.00 0.00 0.00 91 1014.5
20260905134542 79 252 0.0 0.0 0.00 0.00 0.00 95 1014.4
20260905133038 77 252 0.0 0.0 0.00 0.00 0.00 99 1014.6
20260905131538 75 252 0.0 0.0 0.00 0.00 0.00 99 1014.5
20260905130034 74 252 0.0 0.0 0.00 0.00 0.00 100 1014.3
20260905124535 73 252 0.0 0.0 0.00 0.00 0.00 100 1014.3
20260905123038 73 252 0.0 0.0 0.00 0.00 0.00 99 1014.3
20260905121537 72 252 0.0 0.0 0.00 0.00 0.00 99 1014.2
20260905120036 72 252 0.0 0.0 0.00 0.00 0.00 99 1014.1
20260905114529 72 252 0.0 0.0 0.00 0.00 0.00 99 1014.0
20260905113028 72 252 0.0 0.0 0.00 0.00 0.00 99 1013.8
20260905111529 72 252 0.0 0.0 0.00 0.00 0.00 99 1013.6
20260905110026 72 252 0.0 0.0 0.00 0.00 0.00 98 1013.6
20260905104525 72 252 0.0 0.0 0.00 0.00 0.00 99 1013.6
20260905103026 72 252 0.0 0.0 0.00 0.00 0.00 99 1013.6
20260905101528 72 252 0.0 0.0 0.00 0.00 0.00 99 1013.5
20260905100024 72 252 0.0 0.0 0.00 0.00 0.00 98 1013.5
20260905094542 72 252 0.0 0.0 0.00 0.00 0.00 98 1013.4
20260905093023 72 252 0.0 0.0 0.00 0.00 0.00 98 1013.5
20260905091522 73 252 0.0 0.0 0.00 0.00 0.00 98 1013.5
20260905090021 73 252 0.0 0.0 0.00 0.00 0.00 98 1013.4
20260905084520 73 252 0.0 0.0 0.00 0.00 0.00 98 1013.3
20260905083020 73 252 0.0 0.0 0.00 0.00 0.00 97 1013.3
20260905081518 73 252 0.0 0.0 0.00 0.00 0.00 98 1013.3
20260905080017 73 252 0.0 0.0 0.00 0.00 0.00 98 1013.3
20260905074516 74 252 0.0 0.0 0.00 0.00 0.00 98 1013.2
20260905073016 74 252 0.0 0.0 0.00 0.00 0.00 97 1013.3
20260905071515 74 252 0.0 0.0 0.00 0.00 0.00 97 1013.3
20260905070012 74 252 0.0 0.0 0.00 0.00 0.00 97 1013.3
20260905064511 74 252 0.0 0.9 0.00 0.00 0.00 97 1013.2
20260905063009 74 252 0.0 0.0 0.00 0.00 0.00 96 1013.2
20260905061508 74 252 0.0 0.0 0.00 0.00 0.00 96 1013.3
20260905060008 75 252 0.0 0.0 0.00 0.00 0.00 96 1013.5
20260905054502 75 252 0.0 0.0 0.00 0.00 0.00 95 1013.8
20260905053002 75 252 0.0 0.0 0.00 0.00 0.00 95 1013.8
20260905051610 76 252 0.0 0.0 0.00 0.00 0.00 94 1013.7
20260905044555 76 252 0.0 0.0 0.00 0.00 0.00 94 1013.7
20260905043055 76 252 0.0 0.0 0.00 0.00 0.00 93 1013.8
20260905041600 77 252 0.0 0.0 0.00 0.00 0.00 93 1014.0
20260905040106 77 252 0.0 0.0 0.00 0.00 0.00 93 1014.0
20260905034554 78 252 0.0 0.0 0.00 0.00 0.00 92 1013.9
20260905033104 78 252 0.0 0.0 0.00 0.00 0.00 91 1013.9
20260905031552 78 252 0.0 0.0 0.00 0.00 0.00 90 1013.9
20260905024603 79 252 0.0 0.0 0.00 0.00 0.00 88 1013.7
20260905023053 80 252 0.0 0.0 0.00 0.00 0.00 86 1013.9
20260905021550 81 252 0.0 0.0 0.00 0.00 0.00 85 1014.0
20260905020049 81 252 0.0 0.0 0.00 0.00 0.00 84 1013.9
20260905014550 82 252 0.0 0.0 0.00 0.00 0.00 82 1013.8
20260905013111 83 252 0.0 0.0 0.00 0.00 0.00 80 1013.9
20260905011548 84 252 0.0 0.0 0.00 0.00 0.00 78 1013.7
20260905010054 85 252 0.0 0.0 0.00 0.00 0.00 77 1013.6
20260905004547 86 252 0.0 0.0 0.00 0.00 0.00 73 1013.5
20260905003046 88 252 0.0 0.0 0.00 0.00 0.00 71 1013.6
20260905001546 89 252 0.0 0.0 0.00 0.00 0.00 68 1013.4
20260905000046 91 252 0.0 0.0 0.00 0.00 0.00 65 1013.3
20260904234545 92 252 0.0 0.9 0.00 0.00 0.00 64 1013.1
20260904233045 94 259 0.0 0.0 0.00 0.00 0.00 62 1013.1
20260904231544 95 259 0.0 0.9 0.00 0.00 0.00 60 1012.9
20260904230059 96 266 0.0 4.3 0.00 0.00 0.00 57 1012.8
20260904224543 97 295 0.0 1.7 0.00 0.00 0.00 54 1012.8
20260904223046 98 290 0.0 1.7 0.00 0.00 0.00 50 1012.6
20260904221534 98 292 0.0 1.7 0.00 0.00 0.00 51 1012.7
20260904220040 98 296 0.0 1.7 0.00 0.00 0.00 53 1012.7
20260904214533 97 303 0.0 1.7 0.00 0.00 0.00 52 1012.8
20260904213034 99 283 0.9 3.5 0.00 0.00 0.00 49 1012.9
20260904211530 100 286 0.0 1.7 0.00 0.00 0.00 47 1012.8
20260904210027 100 316 0.0 2.6 0.00 0.00 0.00 45 1012.9
20260904204525 100 257 0.0 1.7 0.00 0.00 0.00 46 1013.1